Location: Bennemühlen
(52.5740°N, 9.7135°E)
Time: 17:26:32
(UTC+00:00)

Tiros 1 despin weight - Pass Details

Date: 21 February 2026
Orbit: 556 x 593 km, 48.2° (Epoch: 11 March)

Event Time Altitude Azimuth Distance (km) Brightness Sun altitude
Rises 15:35:02 0° 257° (WSW) 2,740 ? 8.9°
Reaches altitude 10° 15:37:21 10° 251° (WSW) 1,841 ? 8.6°
Maximum altitude 15:41:23 46° 178° (S) 749 ? 8.1°
Drops below altitude 10° 15:45:24 10° 105° (ESE) 1,837 ? 7.5°
Sets 15:47:42 0° 99° (E) 2,733 ? 7.2°
